Location: *
(42.0175°N, 9.4056°E)
Time: 18:19:08
(UTC+00:00)

Aureole 3 Rocket - Pass Details

Date: 25 August 2019
Orbit: 399 x 1741 km, 82.5° (Epoch: 22 September)

Event Time Altitude Azimuth Distance (km) Brightness Sun altitude
Exits shadow 19:55:15 12° 199° (SSW) 1,581 5.0 -18.8°
Maximum altitude 19:58:28 58° 279° (W) 518 2.9 -19.3°
Drops below altitude 10° 20:01:31 10° 360° (N) 1,477 5.5 -19.8°
Sets 20:03:27 0° 4° (N) 2,322 6.5 -20.1°
